CEB639 RPLL-RPVP

Flight info

Callsign CEB639
Flight time 0h 57m
Altitude 32000
Route BUCAL4V BUCAL M646 NOMYO NOMYO2W
Aircraft A20N/M-SDE2E3FGHIRWXY/LB1

Departure

Time 2026-05-05 11:23
Airport Ninoy Aquino International Airport (RPLL)

Arrival

Time 2026-05-05 12:21
Airport Puerto Princesa International Airport / PAF Antonio Bautista Air Base (RPVP)
Time Latitude Longitude Altitude Speed Heading
2026-05-05 10:56 14.52195 121.01002 81 ft 0 kts 46°
2026-05-05 11:04 14.52242 121.00951 82 ft 0 kts 44°
2026-05-05 11:14 14.52235 121.00944 82 ft 2 kts 44°
2026-05-05 11:14 14.52224 121.00933 82 ft 2 kts 45°
2026-05-05 11:14 14.52214 121.00922 82 ft 2 kts 44°
2026-05-05 11:14 14.52203 121.00911 82 ft 2 kts 45°
2026-05-05 11:15 14.52192 121.00900 82 ft 2 kts 44°
2026-05-05 11:15 14.52182 121.00890 82 ft 2 kts 44°
2026-05-05 11:15 14.52171 121.00878 82 ft 2 kts 44°
2026-05-05 11:15 14.52164 121.00871 82 ft 0 kts 45°
2026-05-05 11:16 14.52156 121.00867 82 ft 1 kts 350°
2026-05-05 11:16 14.52150 121.00869 82 ft 0 kts 308°
2026-05-05 11:16 14.52146 121.00874 82 ft 0 kts 314°
2026-05-05 11:19 14.52147 121.00874 81 ft 0 kts 314°
2026-05-05 11:19 14.52154 121.00867 81 ft 1 kts 314°
2026-05-05 11:19 14.52166 121.00854 81 ft 3 kts 314°
2026-05-05 11:19 14.52185 121.00835 82 ft 4 kts 316°
2026-05-05 11:20 14.52211 121.00809 82 ft 5 kts 315°
2026-05-05 11:20 14.52243 121.00776 82 ft 6 kts 315°
2026-05-05 11:20 14.52280 121.00737 82 ft 7 kts 315°
2026-05-05 11:20 14.52321 121.00695 82 ft 8 kts 314°
2026-05-05 11:21 14.52368 121.00646 82 ft 10 kts 315°
2026-05-05 11:21 14.52420 121.00593 82 ft 10 kts 315°
2026-05-05 11:21 14.52472 121.00539 82 ft 8 kts 313°
2026-05-05 11:21 14.52483 121.00481 82 ft 9 kts 238°
2026-05-05 11:22 14.52436 121.00434 82 ft 9 kts 225°
2026-05-05 11:22 14.52395 121.00397 82 ft 6 kts 194°
2026-05-05 11:22 14.52354 121.00414 82 ft 7 kts 137°
2026-05-05 11:22 14.52342 121.00426 82 ft 0 kts 134°
2026-05-05 11:23 14.52242 121.00530 82 ft 59 kts 135°
2026-05-05 11:23 14.51762 121.01026 82 ft 131 kts 135°
2026-05-05 11:23 14.51017 121.01782 397 ft 156 kts 136°
2026-05-05 11:23 14.50259 121.02549 1116 ft 154 kts 131°
2026-05-05 11:24 14.49529 121.03308 1739 ft 150 kts 130°
2026-05-05 11:24 14.48799 121.04079 2225 ft 151 kts 130°
2026-05-05 11:24 14.48058 121.04859 2713 ft 152 kts 130°
2026-05-05 11:24 14.47320 121.05633 3192 ft 154 kts 131°
2026-05-05 11:25 14.46535 121.06454 3529 ft 168 kts 131°
2026-05-05 11:25 14.45672 121.07356 3852 ft 185 kts 132°
2026-05-05 11:25 14.44631 121.08218 4187 ft 205 kts 152°
2026-05-05 11:25 14.43138 121.08495 4468 ft 234 kts 184°
2026-05-05 11:26 14.41559 121.07856 4809 ft 260 kts 218°
2026-05-05 11:26 14.40314 121.06408 5272 ft 279 kts 231°
2026-05-05 11:26 14.39107 121.04825 5915 ft 287 kts 230°
2026-05-05 11:26 14.37811 121.03252 6721 ft 289 kts 222°
2026-05-05 11:27 14.36242 121.01969 7517 ft 290 kts 211°
2026-05-05 11:27 14.34502 121.00909 8290 ft 293 kts 207°
2026-05-05 11:27 14.32725 120.99908 9044 ft 296 kts 206°
2026-05-05 11:27 14.30911 120.98892 9759 ft 299 kts 206°
2026-05-05 11:28 14.29078 120.97857 10424 ft 303 kts 206°
2026-05-05 11:28 14.27177 120.96777 10793 ft 319 kts 207°
2026-05-05 11:28 14.25180 120.95637 11092 ft 337 kts 207°
2026-05-05 11:28 14.23070 120.94428 11373 ft 353 kts 207°
2026-05-05 11:29 14.20875 120.93168 11656 ft 368 kts 207°
2026-05-05 11:29 14.18616 120.91868 12163 ft 374 kts 207°
2026-05-05 11:29 14.16327 120.90551 12746 ft 377 kts 208°
2026-05-05 11:29 14.14027 120.89228 13304 ft 380 kts 208°
2026-05-05 11:30 14.11703 120.87892 13853 ft 383 kts 207°
2026-05-05 11:30 14.09362 120.86547 14415 ft 386 kts 208°
2026-05-05 11:30 14.07009 120.85198 14954 ft 389 kts 208°
2026-05-05 11:30 14.04632 120.83836 15475 ft 391 kts 208°
2026-05-05 11:31 14.02268 120.82479 15980 ft 394 kts 208°
2026-05-05 11:31 13.99853 120.81094 16475 ft 397 kts 208°
2026-05-05 11:31 13.97426 120.79701 16969 ft 399 kts 208°
2026-05-05 11:31 13.94976 120.78296 17459 ft 401 kts 208°
2026-05-05 11:32 13.92559 120.76909 17942 ft 404 kts 208°
2026-05-05 11:32 13.90098 120.75497 18385 ft 406 kts 208°
2026-05-05 11:32 13.87602 120.74067 18821 ft 409 kts 208°
2026-05-05 11:32 13.85079 120.72623 19255 ft 412 kts 208°
2026-05-05 11:33 13.82579 120.71191 19679 ft 415 kts 208°
2026-05-05 11:33 13.80026 120.69728 20115 ft 418 kts 208°
2026-05-05 11:33 13.77491 120.68277 20539 ft 421 kts 208°
2026-05-05 11:33 13.74906 120.66796 20974 ft 423 kts 208°
2026-05-05 11:34 13.72312 120.65311 21389 ft 426 kts 208°
2026-05-05 11:34 13.69713 120.63822 21808 ft 429 kts 208°
2026-05-05 11:34 13.67118 120.62335 22213 ft 431 kts 208°
2026-05-05 11:34 13.64463 120.60815 22636 ft 434 kts 208°
2026-05-05 11:35 13.61808 120.59296 23057 ft 436 kts 208°
2026-05-05 11:35 13.59115 120.57844 23470 ft 438 kts 205°
2026-05-05 11:35 13.56358 120.56499 23885 ft 439 kts 205°
2026-05-05 11:35 13.53586 120.55166 24293 ft 441 kts 205°
2026-05-05 11:36 13.50773 120.53815 24704 ft 442 kts 205°
2026-05-05 11:36 13.47950 120.52457 25125 ft 443 kts 205°
2026-05-05 11:36 13.45101 120.51087 25509 ft 445 kts 205°
2026-05-05 11:36 13.42238 120.49710 25862 ft 448 kts 205°
2026-05-05 11:37 13.39424 120.48356 26204 ft 450 kts 205°
2026-05-05 11:37 13.36588 120.46990 26653 ft 449 kts 205°
2026-05-05 11:37 13.33755 120.45628 27173 ft 446 kts 205°
2026-05-05 11:37 13.30946 120.44278 27654 ft 444 kts 205°
2026-05-05 11:38 13.28150 120.42936 28101 ft 443 kts 205°
2026-05-05 11:38 13.25361 120.41599 28529 ft 442 kts 205°
2026-05-05 11:38 13.22585 120.40266 28963 ft 440 kts 205°
2026-05-05 11:38 13.19808 120.38934 29412 ft 438 kts 205°
2026-05-05 11:39 13.17023 120.37598 29846 ft 436 kts 205°
2026-05-05 11:39 13.14275 120.36280 30218 ft 436 kts 205°
2026-05-05 11:39 13.11518 120.34957 30512 ft 437 kts 205°
2026-05-05 11:39 13.08749 120.33630 30784 ft 439 kts 205°
2026-05-05 11:40 13.06007 120.32315 31070 ft 440 kts 205°
2026-05-05 11:40 13.03212 120.30975 31366 ft 440 kts 205°
2026-05-05 11:40 13.00461 120.29656 31649 ft 441 kts 205°
2026-05-05 11:40 12.97625 120.28297 31814 ft 443 kts 205°
2026-05-05 11:41 12.94817 120.26952 31815 ft 444 kts 205°
2026-05-05 11:41 12.89210 120.24265 31815 ft 444 kts 205°
2026-05-05 11:42 12.83631 120.21594 31815 ft 444 kts 205°
2026-05-05 11:42 12.78009 120.18905 31813 ft 443 kts 205°
2026-05-05 11:43 12.72415 120.16231 31811 ft 443 kts 205°
2026-05-05 11:43 12.66842 120.13567 31812 ft 443 kts 205°
2026-05-05 11:44 12.61230 120.10888 31810 ft 443 kts 205°
2026-05-05 11:44 12.55638 120.08216 31808 ft 443 kts 205°
2026-05-05 11:45 12.50051 120.05549 31809 ft 443 kts 205°
2026-05-05 11:45 12.44437 120.02873 31806 ft 443 kts 205°
2026-05-05 11:46 12.38846 120.00208 31802 ft 443 kts 205°
2026-05-05 11:46 12.33267 119.97548 31802 ft 443 kts 205°
2026-05-05 11:47 12.27640 119.94868 31802 ft 443 kts 205°
2026-05-05 11:47 12.22070 119.92217 31799 ft 443 kts 205°
2026-05-05 11:48 12.13691 119.88229 31793 ft 443 kts 206°
2026-05-05 11:48 12.08081 119.85560 31794 ft 444 kts 205°
2026-05-05 11:49 12.02444 119.82880 31794 ft 445 kts 206°
2026-05-05 11:49 11.96824 119.80209 31804 ft 444 kts 206°
2026-05-05 11:50 11.91221 119.77548 31805 ft 444 kts 206°
2026-05-05 11:50 11.85613 119.74886 31804 ft 444 kts 206°
2026-05-05 11:51 11.80010 119.72224 31807 ft 445 kts 206°
2026-05-05 11:51 11.74384 119.69556 31805 ft 445 kts 206°
2026-05-05 11:52 11.68737 119.66883 31807 ft 446 kts 205°
2026-05-05 11:52 11.63055 119.64246 31805 ft 446 kts 205°
2026-05-05 11:53 11.57393 119.61626 31803 ft 446 kts 205°
2026-05-05 11:53 11.51740 119.59006 31806 ft 446 kts 205°
2026-05-05 11:54 11.46081 119.56383 31803 ft 445 kts 205°
2026-05-05 11:54 11.40429 119.53762 31806 ft 446 kts 205°
2026-05-05 11:55 11.34784 119.51145 31811 ft 446 kts 205°
2026-05-05 11:55 11.29139 119.48531 31813 ft 446 kts 205°
2026-05-05 11:56 11.23491 119.45915 31534 ft 449 kts 205°
2026-05-05 11:56 11.20643 119.44596 30824 ft 450 kts 205°
2026-05-05 11:56 11.17784 119.43272 30096 ft 450 kts 205°
2026-05-05 11:57 11.14911 119.41943 29353 ft 451 kts 205°
2026-05-05 11:57 11.12064 119.40626 28604 ft 451 kts 205°
2026-05-05 11:57 11.09194 119.39298 27856 ft 452 kts 204°
2026-05-05 11:57 11.06342 119.37979 27073 ft 454 kts 204°
2026-05-05 11:58 11.03464 119.36648 26261 ft 456 kts 204°
2026-05-05 11:58 11.00557 119.35305 25531 ft 455 kts 204°
2026-05-05 11:58 10.97700 119.33985 24987 ft 450 kts 204°
2026-05-05 11:58 10.94861 119.32674 24439 ft 445 kts 204°
2026-05-05 11:59 10.92059 119.31379 23894 ft 441 kts 204°
2026-05-05 11:59 10.89288 119.30100 23361 ft 437 kts 204°
2026-05-05 11:59 10.86517 119.28821 22825 ft 433 kts 204°
2026-05-05 11:59 10.83765 119.27550 22296 ft 429 kts 204°
2026-05-05 12:00 10.81081 119.26311 21780 ft 426 kts 204°
2026-05-05 12:00 10.78369 119.25060 21251 ft 423 kts 203°
2026-05-05 12:00 10.75718 119.23837 20726 ft 420 kts 203°
2026-05-05 12:00 10.73045 119.22603 20191 ft 417 kts 203°
2026-05-05 12:01 10.70426 119.21395 19662 ft 414 kts 203°
2026-05-05 12:01 10.67788 119.20179 19124 ft 412 kts 203°
2026-05-05 12:01 10.65214 119.18993 18600 ft 409 kts 203°
2026-05-05 12:01 10.62618 119.17796 18068 ft 407 kts 203°
2026-05-05 12:02 10.60044 119.16609 17536 ft 405 kts 203°
2026-05-05 12:02 10.57477 119.15427 17002 ft 403 kts 203°
2026-05-05 12:02 10.54941 119.14259 16478 ft 400 kts 203°
2026-05-05 12:02 10.52388 119.13084 15947 ft 398 kts 203°
2026-05-05 12:03 10.49873 119.11926 15422 ft 396 kts 203°
2026-05-05 12:03 10.47357 119.10767 14888 ft 394 kts 203°
2026-05-05 12:03 10.44875 119.09624 14356 ft 392 kts 203°
2026-05-05 12:03 10.42397 119.08483 13824 ft 391 kts 203°
2026-05-05 12:04 10.39917 119.07343 13291 ft 388 kts 203°
2026-05-05 12:04 10.37470 119.06216 12764 ft 386 kts 204°
2026-05-05 12:04 10.35076 119.04974 12233 ft 385 kts 209°
2026-05-05 12:04 10.32801 119.03525 11721 ft 383 kts 214°
2026-05-05 12:05 10.30641 119.01939 11202 ft 380 kts 216°
2026-05-05 12:05 10.28516 119.00333 10793 ft 374 kts 216°
2026-05-05 12:05 10.26474 118.98787 10548 ft 362 kts 216°
2026-05-05 12:05 10.24474 118.97276 10401 ft 348 kts 216°
2026-05-05 12:06 10.22574 118.95845 10252 ft 336 kts 216°
2026-05-05 12:06 10.20715 118.94447 10106 ft 323 kts 216°
2026-05-05 12:06 10.18945 118.93119 9969 ft 312 kts 216°
2026-05-05 12:06 10.17210 118.91818 9603 ft 310 kts 216°
2026-05-05 12:07 10.15482 118.90524 9221 ft 308 kts 215°
2026-05-05 12:07 10.13596 118.89545 8802 ft 305 kts 191°
2026-05-05 12:07 10.11516 118.89612 8437 ft 297 kts 162°
2026-05-05 12:07 10.09539 118.90263 8088 ft 294 kts 160°
2026-05-05 12:08 10.07595 118.90914 7734 ft 292 kts 160°
2026-05-05 12:08 10.05665 118.91531 7389 ft 290 kts 161°
2026-05-05 12:08 10.03750 118.92121 7048 ft 287 kts 161°
2026-05-05 12:08 10.01840 118.92697 6706 ft 285 kts 161°
2026-05-05 12:09 9.99949 118.93261 6371 ft 282 kts 161°
2026-05-05 12:09 9.98052 118.93825 6031 ft 279 kts 161°
2026-05-05 12:09 9.96192 118.94379 5700 ft 277 kts 161°
2026-05-05 12:09 9.94359 118.94925 5370 ft 274 kts 161°
2026-05-05 12:10 9.92533 118.95470 5040 ft 272 kts 161°
2026-05-05 12:10 9.90722 118.96009 4712 ft 269 kts 161°
2026-05-05 12:10 9.88921 118.96546 4380 ft 267 kts 161°
2026-05-05 12:10 9.87134 118.97077 4142 ft 261 kts 161°
2026-05-05 12:11 9.85425 118.97585 4065 ft 248 kts 161°
2026-05-05 12:11 9.83802 118.98067 3982 ft 237 kts 161°
2026-05-05 12:11 9.82255 118.98514 3891 ft 227 kts 165°
2026-05-05 12:11 9.80705 118.98702 3828 ft 216 kts 177°
2026-05-05 12:12 9.79220 118.98664 3845 ft 214 kts 180°
2026-05-05 12:12 9.77727 118.98589 3885 ft 210 kts 180°
2026-05-05 12:12 9.76303 118.98511 3863 ft 196 kts 180°
2026-05-05 12:12 9.74955 118.98380 3558 ft 197 kts 193°
2026-05-05 12:13 9.73817 118.97643 3263 ft 197 kts 229°
2026-05-05 12:13 9.73257 118.96411 3017 ft 190 kts 262°
2026-05-05 12:13 9.73256 118.95136 2971 ft 172 kts 274°
2026-05-05 12:13 9.73345 118.93941 2927 ft 169 kts 275°
2026-05-05 12:14 9.73433 118.92752 2870 ft 168 kts 274°
2026-05-05 12:14 9.73507 118.91563 2784 ft 168 kts 274°
2026-05-05 12:14 9.73568 118.90382 2656 ft 168 kts 274°
2026-05-05 12:14 9.73625 118.89198 2400 ft 166 kts 273°
2026-05-05 12:15 9.73677 118.88039 2173 ft 166 kts 273°
2026-05-05 12:15 9.73728 118.86865 1955 ft 165 kts 273°
2026-05-05 12:15 9.73779 118.85706 1731 ft 164 kts 273°
2026-05-05 12:15 9.73830 118.84554 1512 ft 163 kts 272°
2026-05-05 12:16 9.73881 118.83406 1295 ft 162 kts 272°
2026-05-05 12:16 9.73930 118.82265 1080 ft 162 kts 271°
2026-05-05 12:16 9.73980 118.81140 893 ft 160 kts 271°
2026-05-05 12:16 9.74027 118.80003 890 ft 161 kts 271°
2026-05-05 12:17 9.74177 118.78886 876 ft 162 kts 294°
2026-05-05 12:17 9.74869 118.77973 888 ft 162 kts 315°
2026-05-05 12:17 9.75685 118.77199 889 ft 162 kts 319°
2026-05-05 12:17 9.76530 118.76435 891 ft 162 kts 319°
2026-05-05 12:18 9.77262 118.75563 873 ft 162 kts 290°
2026-05-05 12:18 9.77483 118.74457 891 ft 162 kts 275°
2026-05-05 12:18 9.77575 118.73322 891 ft 162 kts 272°
2026-05-05 12:18 9.77646 118.72177 892 ft 161 kts 272°
2026-05-05 12:19 9.77593 118.71043 952 ft 160 kts 251°
2026-05-05 12:19 9.76956 118.70159 1019 ft 157 kts 208°
2026-05-05 12:19 9.75925 118.69943 1117 ft 152 kts 171°
2026-05-05 12:19 9.74971 118.70345 1129 ft 149 kts 133°
2026-05-05 12:20 9.74391 118.71201 1119 ft 143 kts 109°
2026-05-05 12:20 9.74322 118.72176 813 ft 138 kts 90°
2026-05-05 12:20 9.74337 118.73129 464 ft 135 kts 95°
2026-05-05 12:20 9.74292 118.74073 261 ft 135 kts 95°
2026-05-05 12:21 9.74246 118.75023 94 ft 134 kts 96°
2026-05-05 12:21 9.74208 118.75840 75 ft 78 kts 94°
2026-05-05 12:21 9.74193 118.76175 75 ft 36 kts 91°
2026-05-05 12:21 9.74184 118.76402 75 ft 29 kts 92°
2026-05-05 12:22 9.74175 118.76594 75 ft 23 kts 91°
2026-05-05 12:22 9.74171 118.76720 75 ft 14 kts 93°
2026-05-05 12:22 9.74166 118.76823 75 ft 13 kts 93°
2026-05-05 12:22 9.74176 118.76895 75 ft 10 kts 59°
2026-05-05 12:23 9.74216 118.76957 75 ft 10 kts 71°
2026-05-05 12:23 9.74215 118.77028 75 ft 9 kts 109°
2026-05-05 12:23 9.74160 118.77034 75 ft 10 kts 242°
2026-05-05 12:23 9.74161 118.76958 75 ft 11 kts 275°
2026-05-05 12:24 9.74165 118.76874 75 ft 12 kts 271°
2026-05-05 12:24 9.74168 118.76784 75 ft 13 kts 272°
2026-05-05 12:24 9.74172 118.76689 75 ft 13 kts 272°
2026-05-05 12:24 9.74176 118.76596 75 ft 13 kts 272°
2026-05-05 12:25 9.74181 118.76505 75 ft 12 kts 272°
2026-05-05 12:25 9.74184 118.76417 75 ft 12 kts 272°
2026-05-05 12:25 9.74188 118.76333 75 ft 12 kts 273°
2026-05-05 12:25 9.74193 118.76247 75 ft 12 kts 272°
2026-05-05 12:26 9.74195 118.76163 75 ft 11 kts 271°
2026-05-05 12:26 9.74199 118.76080 75 ft 11 kts 273°
2026-05-05 12:26 9.74203 118.75998 75 ft 11 kts 272°
2026-05-05 12:26 9.74206 118.75916 75 ft 11 kts 273°
2026-05-05 12:27 9.74210 118.75835 75 ft 11 kts 272°
2026-05-05 12:27 9.74213 118.75756 75 ft 11 kts 272°
2026-05-05 12:27 9.74217 118.75675 75 ft 11 kts 272°
2026-05-05 12:27 9.74220 118.75597 75 ft 11 kts 273°
2026-05-05 12:28 9.74224 118.75517 75 ft 11 kts 273°
2026-05-05 12:28 9.74228 118.75437 75 ft 11 kts 272°
2026-05-05 12:28 9.74230 118.75358 75 ft 11 kts 272°
2026-05-05 12:28 9.74237 118.75281 75 ft 10 kts 295°
2026-05-05 12:29 9.74295 118.75251 75 ft 10 kts
2026-05-05 12:29 9.74365 118.75256 75 ft 9 kts
2026-05-05 12:29 9.74406 118.75214 75 ft 9 kts 275°
2026-05-05 12:29 9.74408 118.75153 75 ft 7 kts 271°
2026-05-05 12:30 9.74426 118.75113 75 ft 6 kts 345°
2026-05-05 12:30 9.74469 118.75114 75 ft 5 kts
2026-05-05 12:30 9.74498 118.75116 75 ft 2 kts
2026-05-05 12:30 9.74500 118.75117 75 ft 0 kts
2026-05-05 12:31 9.74506 118.75117 75 ft 0 kts